Hourly Data Report for October 27, 2015

All times are specified in Local Standard Time (LST). Add 1 hour to adjust for Daylight Saving Time where and when it is observed.

ARVIAT A
NUNAVUT

61°05'38.000" N
94°04'18.000" W
10.40 m
2300427
71174
YEK

Download Data

Hourly Data (October 2015)
Hourly Data Report for October 27, 2015
Temp Definition
°C
Dew Point Temp Definition
°C
Rel Hum Definition
%
Wind Dir Definition
10's deg

Wind Spd Definition
km/h
Visibility Definition
km
Stn Press Definition
kPa
Hmdx Definition


Wind Chill Definition


Weather Definition


TIME
00:00 Legend Double Dagger -15.9 -18.0 84 29 24 16.1 101.97   -26 LegendNANA
01:00 Legend Double Dagger -15.8 -18.1 83 30 35 16.1 101.96   -28 LegendNANA
02:00 Legend Double Dagger -16.0 -18.3 83 30 34 16.1 101.99   -28 LegendNANA
03:00 Legend Double Dagger -16.2 -18.5 83 29 21 16.1 102.05   -26 LegendNANA
04:00 Legend Double Dagger -17.0 -19.4 82 29 18 16.1 102.05   -26 LegendNANA
05:00 Legend Double Dagger -18.0 -20.2 83 29 15 16.1 102.02   -27 LegendNANA
06:00 Legend Double Dagger -17.9 -20.3 82 29 15 16.1 102.01   -26 LegendNANA
07:00 Legend Double Dagger -19.3 -21.6 83 25 18 16.1 102.03   -29 LegendNANA
08:00 Legend Double Dagger -19.3 -21.6 82 27 18 16.1 101.96   -29 LegendNANA
09:00 Legend Double Dagger -19.5 -21.7 83 22 8 16.1 101.92   -26 LegendNANA
10:00 Legend Double Dagger -18.3 -20.6 83 25 9 16.1 101.88   -25 LegendNANA
11:00 Legend Double Dagger -17.2 -19.6 82 27 8 16.1 101.85   -23 LegendNANA
12:00 Legend Double Dagger -16.2 -18.9 80 27 8 16.1 101.84   -22 LegendNANA
13:00 Legend Double Dagger -14.7 -17.4 80 29 5 16.1 101.81   -18 LegendNANA
14:00 Legend Double Dagger -12.5 -15.9 76   0 16.1 101.74     LegendNANA
15:00 Legend Double Dagger -11.9 -15.6 74   0 16.1 101.70     LegendNANA
16:00 Legend Double Dagger -10.3 -14.6 71 3 9 16.1 101.65   -15 LegendNANA
17:00 Legend Double Dagger -8.4 -13.3 68 5 11 16.1 101.59   -14 LegendNANA
18:00 Legend Double Dagger -7.0 -9.9 80 8 13 16.1 101.53   -13 LegendNANA
19:00 Legend Double Dagger -5.8 -8.4 82 10 13 16.1 101.53   -11 LegendNANA
20:00 Legend Double Dagger -4.7 -6.9 85 10 13 16.1 101.52   -10 LegendNANA
21:00 Legend Double Dagger -4.0 -6.0 86 11 13 16.1 101.46   -9 LegendNANA
22:00 Legend Double Dagger -3.4 -5.3 87 10 15 16.1 101.37   -9 LegendNANA
23:00 Legend Double Dagger -3.6 -5.3 88 9 15 16.1 101.32   -9 LegendNANA

Notes on Data Quality.

Legend

  • E = Estimated
  • M = Missing
  • NA = Not Available
  • ‡ = Partner data that is not subject to review by the National Climate Archives
Date modified: